| time (UTC) | temp F | wind direction | speed MPH | gust MPH | rain 1hr in | rain 24hr in | rain mn in | humidity % | barometer mb |
| 20260503191406 | 57 | 238 | 5.0 | 12.0 | 0.00 | 0.00 | 0.00 | 42 | 1016.6 |
| 20260503190503 | 58 | 221 | 7.0 | 8.0 | 0.00 | 0.00 | 0.00 | 40 | 1016.8 |
| 20260503185604 | 59 | 249 | 6.0 | 10.0 | 0.00 | 0.00 | 0.00 | 40 | 1017.0 |
| 20260503184705 | 59 | 222 | 6.0 | 8.0 | 0.00 | 0.00 | 0.00 | 41 | 1017.2 |
| 20260503183804 | 59 | 256 | 7.0 | 14.0 | 0.00 | 0.00 | 0.00 | 40 | 1017.3 |
| 20260503182903 | 60 | 212 | 8.0 | 17.0 | 0.00 | 0.00 | 0.00 | 42 | 1017.5 |
| 20260503182003 | 59 | 216 | 10.0 | 13.0 | 0.00 | 0.00 | 0.00 | 40 | 1017.6 |
| 20260503181104 | 59 | 250 | 10.0 | 12.0 | 0.00 | 0.00 | 0.00 | 41 | 1017.7 |
| 20260503180203 | 59 | 199 | 7.0 | 12.0 | 0.00 | 0.00 | 0.00 | 43 | 1017.7 |
| 20260503175305 | 59 | 231 | 7.0 | 8.0 | 0.00 | 0.00 | 0.00 | 43 | 1017.8 |
| 20260503174404 | 58 | 262 | 6.0 | 12.0 | 0.00 | 0.00 | 0.00 | 41 | 1018.0 |
| 20260503173503 | 58 | 234 | 7.0 | 15.0 | 0.00 | 0.00 | 0.00 | 44 | 1018.1 |
| 20260503172603 | 58 | 194 | 9.0 | 14.0 | 0.00 | 0.00 | 0.00 | 43 | 1018.1 |
| 20260503171704 | 57 | 210 | 8.0 | 16.0 | 0.00 | 0.00 | 0.00 | 42 | 1018.3 |
| 20260503170804 | 58 | 215 | 12.0 | 17.0 | 0.00 | 0.00 | 0.00 | 40 | 1018.4 |
| 20260503150203 | 54 | 242 | 6.0 | 16.0 | 0.00 | 0.00 | 0.00 | 53 | 1019.9 |
| 20260503131403 | 46 | 250 | 2.0 | 5.0 | 0.00 | 0.00 | 0.00 | 67 | 1020.0 |
| 20260503130504 | 45 | 243 | 2.0 | 6.0 | 0.00 | 0.00 | 0.00 | 70 | 1020.2 |
| 20260503120204 | 37 | 246 | 1.0 | 2.0 | 0.00 | 0.00 | 0.00 | 81 | 1020.3 |
| 20260503080804 | 34 | 202 | 0.0 | 0.0 | 0.00 | 0.00 | 0.00 | 85 | 1019.2 |
| 20260503072305 | 35 | 247 | 0.0 | 0.0 | 0.00 | 0.00 | 0.00 | 83 | 1019.2 |
| 20260503071402 | 35 | 247 | 0.0 | 0.0 | 0.00 | 0.00 | 0.00 | 84 | 1019.4 |
| 20260503070504 | 34 | 300 | 0.0 | 0.0 | 0.00 | 0.00 | 0.00 | 85 | 1019.4 |
| 20260503060205 | 34 | 302 | 0.0 | 1.0 | 0.00 | 0.00 | 0.00 | 86 | 1019.9 |
| 20260503054402 | 35 | 302 | 0.0 | 1.0 | 0.00 | 0.00 | 0.00 | 85 | 1019.9 |
| 20260503053504 | 35 | 302 | 0.0 | 0.0 | 0.00 | 0.00 | 0.00 | 85 | 1019.9 |
| 20260503052604 | 35 | 302 | 0.0 | 1.0 | 0.00 | 0.00 | 0.00 | 84 | 1020.0 |
| 20260503051702 | 35 | 302 | 0.0 | 1.0 | 0.00 | 0.00 | 0.00 | 84 | 1019.9 |
| 20260503050804 | 35 | 302 | 0.0 | 0.0 | 0.00 | 0.00 | 0.00 | 84 | 1019.9 |
| 20260503045904 | 35 | 302 | 0.0 | 0.0 | 0.00 | 0.00 | 0.00 | 84 | 1019.9 |
| 20260503045002 | 35 | 302 | 0.0 | 0.0 | 0.00 | 0.00 | 0.00 | 83 | 1019.8 |
| 20260503044103 | 36 | 302 | 0.0 | 0.0 | 0.00 | 0.00 | 0.00 | 82 | 1019.7 |
| 20260503043204 | 36 | 302 | 0.0 | 0.0 | 0.00 | 0.00 | 0.00 | 81 | 1019.7 |
| 20260503042305 | 36 | 302 | 0.0 | 0.0 | 0.00 | 0.00 | 0.00 | 79 | 1019.7 |
| 20260503041404 | 36 | 302 | 0.0 | 0.0 | 0.00 | 0.00 | 0.00 | 77 | 1019.5 |
| 20260503040504 | 37 | 302 | 0.0 | 0.0 | 0.00 | 0.00 | 0.00 | 76 | 1019.6 |
| 20260503035602 | 37 | 302 | 0.0 | 0.0 | 0.00 | 0.00 | 0.00 | 77 | 1019.7 |
| 20260503034702 | 37 | 302 | 0.0 | 0.0 | 0.00 | 0.00 | 0.00 | 77 | 1019.8 |
| 20260503033803 | 36 | 302 | 0.0 | 0.0 | 0.00 | 0.00 | 0.00 | 78 | 1019.8 |
| 20260503032905 | 36 | 302 | 0.0 | 0.0 | 0.00 | 0.00 | 0.00 | 79 | 1019.8 |
| 20260503032003 | 37 | 302 | 0.0 | 0.0 | 0.00 | 0.00 | 0.00 | 78 | 1019.8 |
| 20260503031103 | 37 | 302 | 0.0 | 0.0 | 0.00 | 0.00 | 0.00 | 77 | 1019.9 |
| 20260503030203 | 37 | 302 | 0.0 | 0.0 | 0.00 | 0.00 | 0.00 | 78 | 1019.8 |
| 20260503025305 | 37 | 302 | 0.0 | 0.0 | 0.00 | 0.00 | 0.00 | 76 | 1019.8 |
| 20260503024402 | 38 | 302 | 0.0 | 0.0 | 0.00 | 0.00 | 0.00 | 76 | 1019.8 |
| 20260503023503 | 38 | 302 | 0.0 | 0.0 | 0.00 | 0.00 | 0.00 | 76 | 1019.8 |
| 20260503022604 | 39 | 302 | 0.0 | 0.0 | 0.00 | 0.00 | 0.00 | 75 | 1019.7 |
| 20260503021704 | 39 | 302 | 0.0 | 0.0 | 0.00 | 0.00 | 0.00 | 74 | 1019.7 |
| 20260503020803 | 39 | 302 | 0.0 | 0.0 | 0.00 | 0.00 | 0.00 | 74 | 1019.7 |
| 20260503015904 | 40 | 302 | 0.0 | 0.0 | 0.00 | 0.00 | 0.00 | 73 | 1019.7 |
| 20260503015002 | 40 | 302 | 0.0 | 0.0 | 0.00 | 0.00 | 0.00 | 68 | 1019.5 |
| 20260503014104 | 41 | 302 | 0.0 | 0.0 | 0.00 | 0.00 | 0.00 | 71 | 1019.4 |
| 20260503013202 | 41 | 302 | 0.0 | 1.0 | 0.00 | 0.00 | 0.00 | 67 | 1019.5 |
| 20260503012305 | 41 | 302 | 0.0 | 0.0 | 0.00 | 0.00 | 0.00 | 67 | 1019.3 |
| 20260503011403 | 42 | 302 | 0.0 | 0.0 | 0.00 | 0.00 | 0.00 | 69 | 1019.3 |
| 20260503010502 | 43 | 302 | 0.0 | 0.0 | 0.00 | 0.00 | 0.00 | 61 | 1019.3 |
| 20260503005602 | 44 | 302 | 0.0 | 0.0 | 0.00 | 0.00 | 0.00 | 60 | 1019.2 |
| 20260503004702 | 45 | 302 | 0.0 | 0.0 | 0.00 | 0.00 | 0.00 | 54 | 1019.2 |
| 20260503003803 | 46 | 302 | 0.0 | 0.0 | 0.00 | 0.00 | 0.00 | 52 | 1019.2 |
| 20260503002903 | 48 | 302 | 0.0 | 0.0 | 0.00 | 0.00 | 0.00 | 51 | 1019.1 |
| 20260503002005 | 49 | 302 | 0.0 | 0.0 | 0.00 | 0.00 | 0.00 | 51 | 1019.0 |
| 20260503001104 | 49 | 302 | 0.0 | 0.0 | 0.00 | 0.00 | 0.00 | 51 | 1019.0 |
| 20260503000204 | 49 | 308 | 1.0 | 1.0 | 0.00 | 0.00 | 0.00 | 49 | 1019.0 |
| 20260502235305 | 48 | 290 | 2.0 | 3.0 | 0.00 | 0.00 | 0.00 | 48 | 1019.0 |
| 20260502234402 | 49 | 326 | 1.0 | 1.0 | 0.00 | 0.00 | 0.00 | 48 | 1019.0 |
| 20260502233503 | 48 | 302 | 1.0 | 2.0 | 0.00 | 0.00 | 0.00 | 47 | 1019.1 |
| 20260502232604 | 49 | 309 | 1.0 | 0.0 | 0.00 | 0.00 | 0.00 | 50 | 1019.1 |
| 20260502231703 | 49 | 301 | 3.0 | 3.0 | 0.00 | 0.00 | 0.00 | 48 | 1019.1 |
| 20260502230803 | 49 | 300 | 2.0 | 3.0 | 0.00 | 0.00 | 0.00 | 49 | 1019.1 |
| 20260502225902 | 48 | 308 | 1.0 | 3.0 | 0.00 | 0.00 | 0.00 | 52 | 1019.1 |
| 20260502225003 | 48 | 300 | 2.0 | 3.0 | 0.00 | 0.00 | 0.00 | 50 | 1019.2 |
| 20260502223202 | 49 | 304 | 2.0 | 3.0 | 0.00 | 0.00 | 0.00 | 50 | 1019.0 |
| 20260502222305 | 48 | 300 | 1.0 | 2.0 | 0.00 | 0.00 | 0.00 | 53 | 1019.2 |
| 20260502221402 | 49 | 300 | 1.0 | 3.0 | 0.00 | 0.00 | 0.00 | 51 | 1019.2 |
| 20260502220502 | 49 | 315 | 5.0 | 5.0 | 0.00 | 0.00 | 0.00 | 47 | 1019.1 |
| 20260502215605 | 48 | 298 | 5.0 | 6.0 | 0.00 | 0.00 | 0.00 | 50 | 1019.0 |
| 20260502214703 | 49 | 306 | 5.0 | 7.0 | 0.00 | 0.00 | 0.00 | 51 | 1019.0 |
| 20260502213802 | 49 | 311 | 3.0 | 3.0 | 0.00 | 0.00 | 0.00 | 50 | 1019.0 |
| 20260502212902 | 49 | 305 | 3.0 | 7.0 | 0.00 | 0.00 | 0.00 | 51 | 1018.9 |
| 20260502212004 | 50 | 347 | 3.0 | 6.0 | 0.00 | 0.00 | 0.00 | 52 | 1018.8 |
| 20260502211104 | 48 | 311 | 2.0 | 3.0 | 0.00 | 0.00 | 0.00 | 50 | 1018.8 |
| 20260502210204 | 48 | 309 | 3.0 | 6.0 | 0.00 | 0.00 | 0.00 | 50 | 1018.9 |
| 20260502205305 | 49 | 313 | 2.0 | 3.0 | 0.00 | 0.00 | 0.00 | 51 | 1018.9 |
| 20260502204403 | 49 | 304 | 5.0 | 6.0 | 0.00 | 0.00 | 0.00 | 50 | 1018.8 |
| 20260502203503 | 49 | 307 | 7.0 | 9.0 | 0.00 | 0.00 | 0.00 | 48 | 1018.8 |
| 20260502202603 | 50 | 306 | 5.0 | 6.0 | 0.00 | 0.00 | 0.00 | 50 | 1018.7 |
| 20260502201704 | 50 | 308 | 6.0 | 6.0 | 0.00 | 0.00 | 0.00 | 48 | 1018.8 |
| 20260502200802 | 51 | 326 | 5.0 | 9.0 | 0.00 | 0.00 | 0.00 | 49 | 1018.7 |
| 20260502195902 | 50 | 303 | 8.0 | 10.0 | 0.00 | 0.00 | 0.00 | 47 | 1018.8 |
| 20260502195003 | 50 | 298 | 3.0 | 6.0 | 0.00 | 0.00 | 0.00 | 52 | 1018.9 |
| 20260502194103 | 50 | 342 | 2.0 | 3.0 | 0.00 | 0.00 | 0.00 | 51 | 1018.9 |
| 20260502193203 | 49 | 305 | 5.0 | 7.0 | 0.00 | 0.00 | 0.00 | 52 | 1019.0 |
| 20260502192305 | 49 | 306 | 5.0 | 9.0 | 0.00 | 0.00 | 0.00 | 49 | 1019.0 |